THOR ABLESTAR DEB, 325

Orbit data source: Space-Track

THOR ABLESTAR DEB, 325 is space debris in LEO originally from a launch on Thu, 29 Jun 1961 UTC launched from the Air Force Eastern Test Range (AFETR). Debris objects in space refer to the collection of defunct objects orbiting the Earth. Examples of debris include non-operational satellites, rocket bodies, and fragments generated from explosions, collisions, or faulty payload assembly.

Loading next visibility...
Identifier
325, 1961-015DB
Orbit
LEO
Country
Flag of USUS
Related business
Manufacturer
Unknown
Mission
Spacecraft
Bus & Motor
Unknown
Mass
Unknown
Launch date (UTC)
1961-06-29 (64 years ago)
Launch vehicle
Unknown
Launch site
Air Force Eastern Test Range (AFETR)
Object type
Payload
Rocket body
Debris
Shape & HBR
Unknown shape, 0.1 m
Radar Cross Section
Small (<0.1 m²)

Expand to show TLE details & history
Last TLE update: 10 hours ago

TLE from 10 hours ago
0 THOR ABLESTAR DEB
1   325U 61015DB  25343.09165772  .00001261  00000-0  58845-3 0  9990
2   325  66.9137 230.9127 0056953 181.1053 178.9927 14.22748912306119
Epoch: 2025-12-09T02:11Z
TLE epoch observation values (Epoch: 2025-12-09T02:11:59.227Z)
Latitude
0.00001°
Longitude
119.83461°
Altitude
859.159 km
Speed
7.402 km/s
True Right ascension
15h 23m 39s
True Declination
0° 00' 00"
Sunlit
Object was in daylight at epoch
Visualization orbit readout
Latitude
Unknown
Longitude
Unknown
Altitude
Unknown
Speed
Unknown
Apparent Right ascension
Unknown
Apparent Declination
Unknown
Sunlit
N/A
Visualization observer readout
Local Sidereal Time
10:55:07
Azimuth
Unknown
Elevation
Unknown
Doppler factor
Unknown
Orbital elements
Apogee altitude
855.391 km
Perigee altitude
773.463 km
Semi-major axis
7,192.564 km
Eccentricity
0.0057
Inclination
66.9137°
RAAN
230.9127°
Arg. of periapsis
181.1053°
True anomaly
179.00409°
Mean anomaly
178.9927°
Eccentric anomaly
178.9984°
Mean motion
3.5581 °/min
Orbital period
101.18 mins
BSTAR
0.00058845
Loading maneuver chart data...
Computing Atmospheric mass density...

Documentation

Showing up to 5 results
|